www.pogodaiklimat.ru
ПОГОДА в Йоэнсуу аэропорту
Время
(UTC), дата
13 3.12
14 3.12
15 3.12
16 3.12
17 3.12
18 3.12
19 3.12
20 3.12
21 3.12
22 3.12
23 3.12
00 4.12
01 4.12
02 4.12
03 4.12
04 4.12
05 4.12
06 4.12
07 4.12
08 4.12
09 4.12
10 4.12
11 4.12
12 4.12
13 4.12
14 4.12
15 4.12
16 4.12
17 4.12
18 4.12
19 4.12
20 4.12
21 4.12
22 4.12
23 4.12
00 5.12
01 5.12
02 5.12
03 5.12
04 5.12
05 5.12
06 5.12
07 5.12
08 5.12
09 5.12
10 5.12
11 5.12
12 5.12
13 5.12
14 5.12
15 5.12
16 5.12
17 5.12
18 5.12
19 5.12
20 5.12
21 5.12
22 5.12
23 5.12
00 6.12
01 6.12
02 6.12
03 6.12
04 6.12
05 6.12
06 6.12
07 6.12
08 6.12
09 6.12
10 6.12
11 6.12
12 6.12
13 6.12
14 6.12
15 6.12
16 6.12
17 6.12
18 6.12
19 6.12
20 6.12
21 6.12
22 6.12
23 6.12
00 7.12
01 7.12
02 7.12
03 7.12
04 7.12
05 7.12
06 7.12
07 7.12
08 7.12
09 7.12
10 7.12
11 7.12
12 7.12
13 7.12
14 7.12
15 7.12
16 7.12
17 7.12
18 7.12
19 7.12
20 7.12
21 7.12
22 7.12
23 7.12
00 8.12
01 8.12
02 8.12
03 8.12
04 8.12
05 8.12
06 8.12
07 8.12
08 8.12
09 8.12
10 8.12
11 8.12
12 8.12
13 8.12
14 8.12
15 8.12
16 8.12
17 8.12
18 8.12
19 8.12
20 8.12
21 8.12
22 8.12
23 8.12
00 9.12
01 9.12
02 9.12
03 9.12
04 9.12
05 9.12
06 9.12
07 9.12
08 9.12
09 9.12
10 9.12
11 9.12
12 9.12
13 9.12
14 9.12
15 9.12
16 9.12
17 9.12
18 9.12
19 9.12
20 9.12
21 9.12
22 9.12
23 9.12
00 10.12
01 10.12
02 10.12
03 10.12
04 10.12
05 10.12
06 10.12
07 10.12
08 10.12
09 10.12
10 10.12
11 10.12
12 10.12
13 10.12
Ветер
(напр.,м/с)
Видим. Явления Облачность Т
(С)
Тd
(С)
f
(%)
Тe
(С)
Тes
(С)
Комфортность P
(гПа)
Po
(гПа)
Тmin
(С)
Tmax
(С)
R
(мм)
R24
(мм)
S
(см)
З 5-6
{7}
50 км 5/0 100 м
[]
-4.9 -5.8 93 -12 -12 очень
холодно
1003.2 987.9
З 5-7
{7}
45 км 10/0 100 м
[]
-4.8 -5.4 96 -12 -12 очень
холодно
1003.2 987.9
З 5-7
{7}
40 км 10/0 100 м
[]
-4.8 -5.4 96 -12 -12 очень
холодно
1003.3 988.0
З 5-8
{8}
45 км 10/9 100 м
[]
-5.4 -6.1 95 -13 -13 очень
холодно
1003.1 987.7
З 3-5
{7}
45 км 9/3 100 м
[]
-5.6 -6.5 93 -11 -11 очень
холодно
1002.9 987.5
ЮЗ 2-4
{6}
45 км 10/0
[]
-5.6 -6.4 94 -10 -10 очень
холодно
1002.6 987.2 -5.9 -4.6
Ю 2-4
{4}
40 км 9/0
[]
-6.0 -6.8 94 -10 -10 очень
холодно
1002.0 986.6
Ю 3-5
{5}
45 км 10/0 1500 м
[]
-5.5 -6.2 95 -11 -11 очень
холодно
1001.4 986.1
Ю 2-3
{4}
1200 м слаб. снег 10/10 200 м
[]
-4.1 -4.8 95 -8 -8 очень
холодно
1000.6 985.4
Ю 3-4
{5}
2000 м слаб. снег 10/0 600 м
[]
-3.3 -4.0 95 -9 -9 очень
холодно
999.5 984.3
Ю 5-7
{7}
1900 м слаб. снег 10/10 100 м
[]
-2.9 -3.5 96 -10 -10 очень
холодно
998.2 983.1
Ю 4-6
{7}
2300 м слаб. снег 10/10 100 м
[]
-2.7 -3.4 95 -9 -9 очень
холодно
997.4 982.3
ЮЗ 3-6
{7}
3300 м слаб. снег 10/0 200 м
[]
-2.3 -3.0 95 -8 -8 очень
холодно
996.3 981.2
ЮЗ 4-6
{6}
2800 м слаб. снег 10/0 100 м
[]
-1.9 -2.4 96 -8 -8 очень
холодно
995.9 980.9
ЮЗ 4-7
{7}
3000 м слаб. ливневой снег 10/0 100 м
[]
-1.8 -2.2 97 -8 -8 очень
холодно
995.3 980.3
ЮЗ 3-4
{6}
3800 м слаб. снег 10/0 100 м
[]
-1.7 -2.1 97 -7 -7 холодно 994.7 979.7
Ю 2-4
{4}
4400 м слаб. снег 10/10 100 м
[]
-1.5 -1.8 98 -6 -6 холодно 993.8 978.8
Ю 2-3
{5}
3600 м слаб. снег 10/10 100 м
[]
-1.1 -1.5 97 -5 -5 холодно 993.4 978.5 -6.0 -1.1
ЮЗ 2-3
{4}
4900 м слаб. снег 10/0 100 м
[]
-0.7 -1.1 97 -5 -5 холодно 993.3 978.3
З 2-4
{4}
3000 м слаб. дождь 10/0 100 м
[]
-0.1 -0.3 99 -4 -4 прохладно 993.4 978.5
З 3-4
{6}
3200 м слаб. морось 10/0 100 м
[]
+0.4 +0.2 99 -4 -4 прохладно 993.4 978.5
З 4-5
{6}
4800 м в посл. час осадки 10/0 100 м
[]
+0.5 +0.5 100 -5 -5 холодно 993.2 978.4
З 3-4
{5}
4300 м дымка 10/0 50 м
[]
+0.7 +0.7 100 -4 -4 прохладно 993.7 978.8
З 4-5
{8}
1300 м дымка 10/0 50 м
[]
+0.9 +0.9 100 -5 -5 холодно 994.4 979.5
З 4-6
{7}
1800 м слаб. ливневой дождь 10/0 50 м
[]
+1.3 +1.3 100 -4 -4 прохладно 994.9 980.0
З 4-7
{7}
6000 м дымка 10/0 50 м
[]
+1.7 +1.7 100 -4 -4 прохладно 995.5 980.6
З 5-8
{8}
60 км 10/0 100 м
[]
+2.0 +1.7 98 -4 -4 прохладно 995.6 980.8
З 5-7
{8}
55 км 9/0 100 м
[]
+1.9 +1.5 97 -4 -4 прохладно 996.2 981.4
З 5-7
{7}
65 км 9/0 100 м
[]
+2.1 +1.7 97 -4 -4 прохладно 996.7 981.8
З 4-7
{7}
60 км 9/0 100 м
[]
+2.1 +1.6 96 -3 -3 прохладно 997.5 982.7 -1.2 +2.4
З 4-6
{8}
60 км 10/0 100 м
[]
+2.2 +1.7 96 -3 -3 прохладно 997.9 983.0
З 5-7
{7}
60 км 10/0 200 м
[]
+2.2 +1.8 97 -4 -4 прохладно 997.9 983.0
З 4-6
{6}
50 км 10/0 100 м
[]
+2.3 +1.9 97 -3 -3 прохладно 998.1 983.2
З 3-5
{6}
55 км 10/0 100 м
[]
+2.2 +1.9 98 -2 -2 по сезону 998.4 983.5
З 3-5
{6}
45 км 10/0 100 м
[]
+2.2 +1.9 98 -2 -2 по сезону 998.1 983.2
ЮЗ 3-4
{5}
40 км 10/0 100 м
[]
+2.1 +1.7 97 -2 -2 по сезону 997.6 982.7
Ю 3-3
{5}
40 км 10/0
[]
+1.7 +1.4 98 -3 -3 прохладно 996.3 981.5
Ю 4-4
{6}
30 км 9/1 50 м
[]
+1.4 +1.3 99 -4 -4 прохладно 995.3 980.4
Ю 5-7
{7}
30 км 10/5 50 м
[]
+1.0 +0.9 99 -5 -5 холодно 993.7 978.8
ЮЗ 5-8
{10}
50 км 9/8 200 м
[]
+2.3 +1.5 94 -3 -3 прохладно 993.3 978.5
ЮЗ 7-10
{11}
60 км 10/0 200 м
[]
+2.2 +1.2 93 -4 -4 прохладно 992.1 977.3
З 7-10
{13}
60 км 10/0 200 м
[]
+2.1 +1.1 93 -5 -5 холодно 992.8 978.0 +0.9 +2.5
З 6-10
{13}
12 км 10/0 200 м
[]
+2.2 +1.4 94 -4 -4 прохладно 992.7 978.0
З 5-9
{11}
26 км 10/0 200 м
[]
+2.6 +1.6 93 -3 -3 прохладно 992.2 977.5
З 5-9
{10}
40 км 10/0 200 м
[]
+3.0 +1.7 91 -2 -2 по сезону 992.0 977.3
З 6-9
{10}
35 км 10/0 200 м
[]
+3.0 +1.7 91 -3 -3 прохладно 991.6 976.9
З 5-7
{10}
40 км 10/0 200 м
[]
+3.0 +1.6 91 -2 -2 по сезону 991.3 976.6
ЮЗ 5-9
{10}
35 км 10/0 200 м
[]
+2.7 +1.4 91 -3 -3 прохладно 991.1 976.4
З 5-9
{9}
29 км 10/0 200 м
[]
+2.6 +1.4 92 -3 -3 прохладно 989.9 975.2
З 4-7
{8}
24 км 10/0 300 м
[]
+2.7 +1.5 92 -2 -2 по сезону 988.9 974.2
ЮЗ 6-9
{10}
11 км слаб. морось 10/0 200 м
[]
+2.7 +1.8 94 -3 -3 прохладно 988.3 973.7
ЮЗ 5-9
{11}
50 км в посл. час осадки 10/0 600 м
[]
+2.9 +1.2 89 -3 -3 прохладно 987.5 972.9
ЮЗ 5-8
{10}
50 км 10/0 300 м
[]
+3.1 +1.1 87 -2 -2 по сезону 986.9 972.3
ЮЗ 5-10
{12}
27 км слаб. ливневой дождь 10/0 300 м
[]
+2.9 +1.3 89 -3 -3 прохладно 986.7 972.1 +1.8 +3.3
ЮЗ 6-9
{9}
35 км слаб. ливневой дождь 9/9 300 м
[]
+3.1 +1.1 87 -3 -3 прохладно 986.4 971.7
З 6-9
{11}
40 км в посл. час дождь 9/9 300 м
[]
+2.8 +1.1 89 -3 -3 прохладно 985.9 971.3
ЮЗ 5-9
{10}
45 км 9/9 300 м
[]
+3.0 +1.0 87 -2 -2 по сезону 985.3 970.6
ЮЗ 5-10
{11}
35 км слаб. ливневой дождь 10/10 300 м
[]
+2.7 +1.4 91 -3 -3 прохладно 985.0 970.4
ЮЗ 5-8
{11}
30 км в посл. час дождь 10/0 300 м
[]
+3.0 +1.6 91 -2 -2 по сезону 984.6 969.9
ЮЗ 5-8
{9}
30 км слаб. дождь 10/0 600 м
[]
+3.1 +1.4 89 -2 -2 по сезону 984.5 969.9
ЮЗ 4-7
{9}
45 км в посл. час дождь 10/0 600 м
[]
+2.9 +1.4 90 -2 -2 по сезону 984.6 969.9
ЮЗ 5-7
{8}
50 км 10/0 600 м
[]
+3.0 +1.0 87 -2 -2 по сезону 984.5 969.9
З 4-7
{8}
45 км 10/0 600 м
[]
+2.9 +1.0 87 -2 -2 по сезону 984.6 970.0
З 5-8
{8}
50 км 9/0 600 м
[]
+2.9 +0.9 87 -2 -2 по сезону 984.9 970.3
З 4-5
{8}
55 км 9/0 300 м
[]
+2.6 +0.7 87 -2 -2 по сезону 984.8 970.1
ЮЗ 3-5
{6}
45 км 1/0 600 м
[]
+2.1 +0.7 90 -2 -2 по сезону 985.1 970.5 +2.0 +3.3
ЮЗ 2-4
{4}
40 км ясно +1.3 +0.3 93 -2 -2 по сезону 985.2 970.5
Ю 3-3
{4}
40 км 9/0
[]
+0.4 -0.1 96 -4 -4 прохладно 985.3 970.5
Ю 2-3
{3}
22 км 10/1 300 м
[]
+0.4 +0.4 100 -3 -3 прохладно 985.0 970.3
Ю 3-3
{3}
30 км 9/3 200 м
[]
+0.5 +0.4 99 -4 -4 прохладно 984.3 969.6
ЮЗ 2-3
{4}
23 км 10/0 100 м
[]
+2.1 +1.8 98 -1 -1 по сезону 983.9 969.3
Ю 2-3
{4}
28 км 10/0 50 м
[]
+2.0 +1.9 99 -2 -2 по сезону 983.8 969.1
Ю 2-3
{4}
20 км слаб. дождь 10/10 100 м
[]
+1.8 +1.7 99 -2 -2 по сезону 983.6 969.0
ЮЗ 1-3
{3}
24 км слаб. дождь 10/0 100 м
[]
+1.8 +1.8 100 -0 -0 по сезону 983.7 969.0
ЮЗ 1-2
{3}
9000 м слаб. дождь 10/10 200 м
[]
+1.7 +1.6 99 -0 -0 по сезону 983.8 969.1
Ю 2-2
{2}
600 м слаб. дождь 10/0 100 м
[]
+1.1 +1.1 100 -3 -3 прохладно 984.0 969.3
ЮЗ 2-3
{3}
15 км слаб. дождь 10/0 100 м
[]
+1.6 +1.5 99 -2 -2 по сезону 984.2 969.5
ЮЗ 3-5
{5}
30 км слаб. дождь 10/0 100 м
[]
+1.6 +1.3 98 -3 -3 прохладно 984.7 970.0 -0.8 +2.4
З 2-3
{4}
27 км слаб. дождь 10/0 100 м
[]
+1.5 +1.3 99 -2 -2 по сезону 985.0 970.3
З 2-4
{4}
15 км слаб. ливневой дождь 10/0 100 м
[]
+1.4 +1.3 99 -2 -2 по сезону 985.5 970.8
З 2-3
{4}
6000 м в посл. час дождь 10/0 50 м
[]
+1.4 +1.4 100 -2 -2 по сезону 986.0 971.3
ЮЗ 2-3
{3}
1900 м дымка 10/0 50 м
[]
+1.4 +1.4 100 -2 -2 по сезону 986.5 971.8
ЮЗ 2-3
{3}
1300 м дымка ?/? +1.4 +1.4 100 -2 -2 по сезону 986.8 972.0
ЮЗ 2-3
{4}
2800 м дымка 10/0 50 м
[]
+1.5 +1.5 100 -2 -2 по сезону 987.3 972.5
Ю 1-3
{4}
1900 м дымка 10/0 50 м
[]
+1.5 +1.5 100 -1 -1 по сезону 987.7 972.9
ЮЗ 2-3
{4}
3000 м слаб. ливневой дождь 10/0 100 м
[]
+1.5 +1.5 100 -2 -2 по сезону 987.7 973.0
ЮЗ 2-4
{4}
6000 м в посл. час осадки 10/0 100 м
[]
+1.7 +1.7 100 -2 -2 по сезону 988.1 973.4
ЮЗ 3-4
{5}
4300 м дымка 10/0 100 м
[]
+1.7 +1.7 100 -3 -3 прохладно 988.5 973.8
ЮЗ 3-5
{5}
12 км 10/0 100 м
[]
+1.8 +1.7 99 -3 -3 прохладно 988.9 974.1
ЮЗ 2-4
{5}
50 км 10/10 100 м
[]
+1.7 +1.6 99 -2 -2 по сезону 989.0 974.3 +1.2 +1.9
Ю 2-3
{4}
>70 км 10/0 300 м
[]
+1.5 +1.0 96 -2 -2 по сезону 989.6 974.8
Ю 2-3
{3}
30 км 9/9 <50 м
[]
+0.9 +0.9 100 -3 -3 прохладно 989.5 974.7
Ю 2-2
{4}
60 км 8/0 300 м
[]
+0.8 +0.5 98 -3 -3 прохладно 989.4 974.6
Ю 3-4
{4}
60 км 10/6 300 м
[]
+0.9 +0.5 97 -4 -4 прохладно 988.6 973.8
Ю 4-5
{7}
50 км 10/0 100 м
[]
+0.8 +0.6 99 -5 -5 холодно 988.0 973.3
ЮВ 5-8
{8}
15 км слаб. снег 10/0 50 м
[]
+0.8 +0.5 98 -5 -5 холодно 986.6 971.9
ЮВ 5-6
{8}
6000 м слаб. снег 10/0 100 м
[]
+0.6 +0.4 99 -6 -6 холодно 985.4 970.6
ЮВ 6-9
{9}
4300 м слаб. снег 10/0 100 м
[]
+0.6 +0.4 99 -6 -6 холодно 984.0 969.3
ЮВ 6-9
{9}
17 км слаб. морось 10/0 100 м
[]
+1.4 +1.2 99 -5 -5 холодно 982.9 968.2
Ю 5-7
{10}
4800 м слаб. снег 10/0 50 м
[]
+1.5 +1.5 100 -4 -4 прохладно 982.2 967.5
Ю 6-8
{10}
11 км слаб. снег 10/0 100 м
[]
+1.4 +1.2 99 -5 -5 холодно 981.7 967.1
Ю 4-6
{9}
13 км слаб. снег 10/0 100 м
[]
+0.3 +0.3 100 -5 -5 холодно 981.0 966.3 +0.3 +2.0
Ю 5-7
{7}
13 км слаб. дождь 10/0 50 м
[]
+1.4 +1.4 100 -5 -5 холодно 980.2 965.6
Ю 5-7
{7}
9000 м слаб. дождь со снегом 10/0 50 м
[]
+1.3 +1.3 100 -5 -5 холодно 979.3 964.7
Ю 6-8
{8}
3100 м слаб. дождь 10/0 50 м
[]
+1.3 +1.3 100 -5 -5 холодно 978.5 963.9
Ю 6-7
{9}
2200 м слаб. морось ?/? +1.1 +1.1 100 -6 -6 холодно 977.7 963.1
Ю 4-6
{8}
400 м слаб. морось ?/? +1.1 +1.1 100 -4 -4 прохладно 977.2 962.6
Ю 4-5
{6}
300 м туман ?/? +1.3 +1.3 100 -4 -4 прохладно 976.5 961.9
Ю 3-5
{5}
500 м слаб. дождь ?/? +1.3 +1.3 100 -3 -3 прохладно 976.1 961.5
Ю 2-3
{5}
300 м слаб. ливневой дождь ?/? +1.1 +1.1 100 -3 -3 прохладно 975.8 961.2
З 6-10
{10}
2100 м слаб. ливневой дождь 10/0 50 м
[]
+1.2 +1.2 100 -5 -5 холодно 975.7 961.2
СЗ 6-10
{10}
4800 м слаб. ливневой дождь 10/0 100 м
[]
+0.3 +0.2 99 -7 -7 холодно 976.6 961.9
СЗ 7-12
{12}
11 км слаб. снег 10/0 100 м
[]
+0.2 -0.2 97 -7 -7 холодно 977.5 962.9
СЗ 7-9
{12}
40 км слаб. дождь 9/0 200 м
[]
+0.3 -0.3 96 -7 -7 холодно 978.6 963.9 +0.1 +2.0
СЗ 6-8
{10}
22 км 10/0 200 м
[]
+0.2 -0.3 96 -7 -7 холодно 979.6 964.9
З 7-10
{10}
50 км 9/0 200 м
[]
0.0 -1.0 93 -7 -7 холодно 980.4 965.7
З 7-10
{11}
13 км слаб. ливневой снег 9/0 300 м
[]
-0.6 -1.8 92 -8 -8 очень
холодно
981.4 966.7
З 6-9
{11}
2900 м слаб. ливневой снег 10/0 200 м
[]
-0.8 -1.8 93 -8 -8 очень
холодно
982.3 967.6
З 5-8
{10}
55 км слаб. ливневой снег 10/0 300 м
[]
-0.6 -2.3 88 -7 -7 холодно 982.5 967.7
З 3-5
{8}
10 км слаб. снег 10/0 200 м
[]
-0.8 -1.6 94 -6 -6 холодно 983.0 968.3
З 5-7
{8}
6000 м слаб. ливневой снег 10/0 200 м
[]
-0.9 -1.9 93 -7 -7 холодно 983.7 968.9
З 3-5
{7}
23 км слаб. снег 10/0 200 м
[]
-0.7 -1.9 92 -6 -6 холодно 984.4 969.6
ЮЗ 3-5
{7}
8000 м слаб. снег 10/0 200 м
[]
-0.8 -1.8 93 -6 -6 холодно 984.4 969.6
Ю 2-4
{5}
24 км слаб. ливневой снег 10/10 200 м
[]
-0.8 -1.5 95 -5 -5 холодно 984.5 969.7
ЮЗ 3-6
{6}
11 км слаб. снег 10/0 200 м
[]
-0.8 -1.6 94 -6 -6 холодно 984.4 969.6
Ю 3-5
{5}
55 км 10/0 300 м
[]
-0.8 -2.0 92 -6 -6 холодно 983.8 969.0 -1.0 +0.4
Ю 4-5
{6}
60 км 8/6 600 м
[]
-1.2 -2.1 94 -7 -7 холодно 983.3 968.5
Ю 6-8
{8}
65 км 9/9 300 м
[]
-0.9 -2.2 91 -8 -8 очень
холодно
982.5 967.7
Ю 6-8
{10}
60 км 10/0 200 м
[]
-0.8 -1.9 92 -8 -8 очень
холодно
981.6 966.9
ЮВ 6-9
{9}
26 км слаб. снег 10/0 100 м
[]
-0.9 -1.5 96 -8 -8 очень
холодно
980.1 965.4
ЮВ 7-10
{10}
4600 м слаб. ливневой снег 10/0 200 м
[]
-0.4 -1.2 94 -8 -8 очень
холодно
977.8 963.1
ЮВ 8-12
{12}
8000 м слаб. снег 10/0 100 м
[]
+0.1 -0.6 95 -8 -8 очень
холодно
975.7 961.1
ЮВ 8-12
{14}
1400 м слаб. снег 10/0 100 м
[]
0.0 0.0 100 -8 -8 очень
холодно
973.8 959.2
ЮВ 8-11
{13}
1000 м снег ?/? 0.0 0.0 100 -8 -8 очень
холодно
972.6 958.0
Ю 6-9
{12}
2500 м слаб. морось 10/0 50 м
[]
+0.5 +0.4 99 -6 -6 холодно 972.3 957.7
Ю 5-7
{9}
30 км в посл. час дождь 10/0 100 м
[]
+1.6 +1.5 99 -4 -4 прохладно 971.6 957.1
Ю 4-7
{8}
50 км 8/6 200 м
[]
+2.7 +2.2 97 -2 -2 по сезону 971.9 957.4
Ю 5-8
{9}
50 км 10/0 300 м
[]
+3.3 +2.3 93 -2 -2 по сезону 971.8 957.4 -1.6 +3.6
Ю 6-9
{13}
35 км в посл. час осадки 9/0 300 м
[]
+3.5 +2.1 91 -2 -2 по сезону 971.7 957.3
Ю 6-10
{13}
45 км 9/0 300 м
[]
+3.8 +2.2 89 -2 -2 по сезону 972.1 957.7
Ю 7-12
{17}
45 км 10/0 300 м
[]
+3.8 +1.4 84 -2 -2 по сезону 972.0 957.6
ЮЗ 6-11
{15}
17 км слаб. дождь 10/0 300 м
[]
+3.6 +1.6 87 -2 -2 по сезону 972.3 957.9
З 9-15
{15}
2300 м слаб. снег 10/0 200 м
[]
+1.1 +0.4 95 -7 -7 холодно 973.5 958.9
З 7-12
{16}
7000 м слаб. снег 10/0 100 м
[]
+0.9 +0.2 95 -6 -6 холодно 975.0 960.4
З 7-12
{13}
60 км слаб. снег 10/10 200 м
[]
+0.9 -0.2 92 -6 -6 холодно 975.9 961.3
З 7-12
{13}
30 км слаб. ливневой снег 9/0 300 м
[]
+0.9 -0.5 90 -6 -6 холодно 977.4 962.8
З 6-10
{13}
65 км слаб. ливневой снег 9/0 300 м
[]
+0.5 -1.2 88 -6 -6 холодно 979.1 964.4
З 6-9
{12}
>70 км слаб. ливневой снег 9/0 300 м
[]
+0.2 -1.9 86 -6 -6 холодно 980.8 966.1
З 7-12
{12}
>70 км 9/0 300 м
[]
0.0 -2.6 83 -7 -7 холодно 982.1 967.4
З 6-10
{11}
60 км слаб. ливневой снег 9/0 300 м
[]
-0.3 -2.5 85 -7 -7 холодно 983.6 968.8 -0.3 +4.2
З 7-13
{13}
55 км 9/0 300 м
[]
-0.7 -3.3 83 -8 -8 очень
холодно
985.4 970.6
З 5-8
{12}
55 км в посл. час снег 10/0 300 м
[]
-0.7 -3.2 83 -7 -7 холодно 986.9 972.1
З 4-7
{10}
>70 км 10/0 300 м
[]
-0.9 -3.4 83 -7 -7 холодно 988.3 973.4
З 6-9
{10}
27 км 9/0 600 м
[]
-1.4 -3.7 84 -8 -8 очень
холодно
989.4 974.5
З 7-10
{11}
>70 км 9/0 300 м
[]
-1.9 -4.7 81 -9 -9 очень
холодно
991.0 976.1
З 4-7
{11}
30 км слаб. снег 10/0 300 м
[]
-2.1 -4.2 86 -8 -8 очень
холодно
992.1 977.1
З 6-9
{9}
>70 км 10/0 300 м
[]
-2.2 -5.4 79 -9 -9 очень
холодно
993.4 978.4
З 5-8
{9}
>70 км 9/8 600 м
[]
-2.4 -5.8 77 -9 -9 очень
холодно
994.5 979.5
З 4-6
{7}
65 км 10/6 600 м
[]
-2.5 -5.3 81 -8 -8 очень
холодно
995.6 980.5
З 3-5
{8}
>70 км в посл. час снег 9/9 300 м
[]
-2.8 -4.6 87 -8 -8 очень
холодно
996.4 981.3
СЗ 5-6
{8}
>70 км 9/9 300 м
[]
-2.8 -5.4 82 -9 -9 очень
холодно
997.4 982.3
СЗ 4-7
{7}
6000 м слаб. снег 10/0 300 м
[]
-3.1 -4.4 91 -9 -9 очень
холодно
998.5 983.3 -3.1 -0.2
З 3-4
{6}
60 км в посл. час снег 9/5 200 м
[]
-3.3 -4.7 90 -9 -9 очень
холодно
999.5 984.3
СЗ 4-8
{8}
55 км 9/9 300 м
[]
-3.2 -6.1 80 -9 -9 очень
холодно
1000.6 985.4
СЗ 4-7
{9}
35 км в посл. час снег 9/0 300 м
[]
-3.6 -6.2 82 -10 -10 очень
холодно
1001.5 986.3
СЗ 3-5
{8}
50 км слаб. ливневой снег 8/0 300 м
[]
-3.8 -6.0 85 -9 -9 очень
холодно
1002.7 987.5
СЗ 3-5
{9}
50 км 1/0 200 м
[]
-4.4 -6.4 86 -10 -10 очень
холодно
1003.7 988.4
СЗ 5-7
{8}
55 км ясно -4.8 -7.2 83 -12 -12 очень
холодно
1004.9 989.5
СЗ 5-7
{7}
60 км ясно -5.1 -7.8 81 -12 -12 очень
холодно
1006.2 990.8
Местоположение метеостанции Йоэнсуу аэропорт (Финляндия): широта 62.66 долгота 29.61 высота над уровнем моря 121 м.
В архиве по умолчанию представлена погода в Йоэнсуу аэропорту за последнюю неделю. Архивные данные за месяц целиком и за предыдущие месяцы, начиная с января 2011 года, Вы можете получить, выбрав интересующий диапазон дат из раскрывающегося списка и нажав кнопку "Найти!".
*Определитесь, кто Вы:
Внимание! Время в таблицах - всемирное. Для получения местного времени необходимо прибавить поправку, которая равна 1 ч.
Смотрите также архив погоды в соседних городах и на ближайших метеорологических станциях:
Партнеры нашего сайта:      
Пояснения к столбцам:
  • Ветер - указаны скорость ветра в м/с - средняя за 10 мин, порывы в срок и между сроками (в фигурных скобках) и направление, откуда дует ветер: С - северный,
  • СВ - северо-восточный, В - восточный, ЮВ - юго-восточный, Ю - южный, ЮЗ - юго-западный, З - западный, СЗ - северо-западный.
  • Видимость - горизонтальная дальность видимости в метрах или километрах. При видимости от 1 до 10 км при отсутствии осадков обычно наблюдается дымка, при ухудшении видимости до 1 км и менее - туман. В сухую погоду видимость может ухудшаться дымом, пылью или мглою.
  • Явления - указаны атмосферные явления, наблюдавшиеся в срок или в последний час перед сроком; фигурными скобками обозначены явления, наблюдавшиеся между сроками (за 1-3 часа до срока); квадратными скобками обозначены град или гололедные отложения с указанием их диаметра в мм.
  • Облачность - указаны через наклонную черту общая и нижняя облачность в баллах и высота нижней границы облаков в метрах; квадратными скобками обозначены формы облаков: Ci - перистые, Cs - перисто-слоистые, Cc - перисто-кучевые, Ac - высококучевые, As - высокослоистые, Sc - слоисто-кучевые, Ns - слоисто-дождевые, Cu - кучевые, Cb - кучево-дождевые. Подробнее классификацию облаков см. в Атласе облаков (PDF).
  • T - Температура воздуха - температура, измеренная на высоте 2 м над землей.
  • Td - Температура точки росы - температура, при понижении до которой содержащийся в воздухе водяной пар достигнет насыщения.
  • f - Относительная влажность воздуха - влажноcть воздуха, измеренная на высоте 2 м над землей.
  • Te - Эффективная температура - температура, которую ощущает одетый по сезону человек в тени. Характеристика душности погоды. При расчете учитывается влияние влажности воздуха и скорости ветра на теплоощущения человека.
  • Tes - Эффективная температура на солнце - температура, которую ощущает человек, с поправкой на солнечный нагрев. Характеристика знойности погоды. Зависит от высоты солнца над горизонтом, облачности и скорости ветра. Ночью, в пасмурную погоду, а также при ветре 12 м/с и более поправка равна нулю.
  • P - Атмосферное давление - приведенное к уровню моря атмосферное давление.
  • Po - Атмосферное давление - измеренное на уровне метеостанции атмосферное давление.
  • Tmin - Минимальная температура - минимум температуры воздуха на высоте 2 м над землей.
  • Tmax - Максимальная температура - максимум температуры воздуха на высоте 2 м над землей.
  • R - Количество осадков - Количество выпавших осадков за период времени, мм. При наведении курсора мыши на число - период времени, за который выпало указанное количество осадков.
  • R24 - Количество осадков - Количество выпавших осадков за 24 часа, мм.
  • S - Снежный покров - Высота снежного покрова, см. При наведении курсора мыши на число - состояние снежного покрова и степень покрытия местности в баллах.